Weather Roundup
Issued by NWS Springfield, MO

Home | Current Version | Previous Version | Text Only | Print | Product List | Glossary On
Versions: 1 2 3 4 5 6 7 8 9 10 11 12 13 14 15 16 17 18 19 20 21 22 23 24 25 26 27 28 29 30 31 32 33 34 35 36 37 38 39 40 41 42 43 44 45 46 47 48 49 50
000
NZUS99 KSGF 241807
HRRSGF

HOURLY WEATHER
NATIONAL WEATHER SERVICE SPRINGFIELD MO
100 PM CDT SUN JUL 24 2016

......SGF CWA......

CITY           SKY/WX    TMP DP  RH WIND       PRES   REMARKS
SPRINGFIELD    SUNNY     94  71  47 W9        30.00F HX 101
6HR MIN TEMP:  76; 6HR MAX TEMP:  95;

JOPLIN         SUNNY     93  75  55 SW10      29.99F HX 104
6HR MIN TEMP:  80; 6HR MAX TEMP:  93;

WEST PLAINS    MOSUNNY   93  72  50 CALM      30.03F HX 101
6HR MIN TEMP:  74; 6HR MAX TEMP:  94;

ROLLA          SUNNY     93  75  55 SW8       29.98F HX 104
6HR MIN TEMP:  77; 6HR MAX TEMP:  93;

OSAGE BEACH    SUNNY     93  75  55 W6        29.98F HX 104
BRANSON        MOSUNNY   91  73  55 W7        30.04S HX 100

......SURROUNDING SGF CWA......

CITY           SKY/WX    TMP DP  RH WIND       PRES   REMARKS
CHANUTE        SUNNY     93  74  53 S13       29.96S HX 103
PARSONS        SUNNY     95  73  48 S9        29.97F HX 104
COFFEYVILLE    SUNNY     96  73  47 SW7G17    29.96R HX 105
EMPORIA        MOSUNNY   97  66  36 VRB3      29.93F HX 100
GROVE OK       SUNNY     93  75  55 SW7       30.00F HX 104
ROGERS AR      SUNNY     91  75  59 NW7       30.03F HX 101
SILOAM SPRINGS SUNNY     93  70  46 NW8       30.03F HX  99
HARRISON AR    SUNNY     93  74  53 NW6       30.03F HX 103
NEAR YELLVILLE SUNNY     93  75  55 CALM      29.97F HX 104

......KANSAS AND MISSOURI......

CITY           SKY/WX    TMP DP  RH WIND       PRES   REMARKS
KANSAS CTY INT MOSUNNY   93  72  50 VRB5      29.95S HX 101
DOWNTOWN KC    CLOUDY    94  73  50 W5        29.92F HX 103
COLUMBIA       SUNNY     93  76  57 W12       29.96S HX 105
SEDALIA        SUNNY     93  77  59 SW8       29.97F HX 107
ST JOSEPH      CLOUDY    88  77  69 SW5       29.92S HX 100
ST LOUIS       MOSUNNY   98  76  49 SW5       29.95F HX 112
SPIRIT OF STL  MOSUNNY   95  78  58 SW8       29.93F HX 111
KIRKSVILLE     CLOUDY    92  73  53 W7        29.92S HX 100
WICHITA        MOSUNNY  100  67  33 SW10      29.93F HX 105
TOPEKA         CLOUDY    90  72  55 NE6       29.95R HX  97
OLATHE         SUNNY     92  73  53 S6        29.95S HX 100

......TENNESSEE......

CITY           SKY/WX    TMP DP  RH WIND       PRES   REMARKS
MEMPHIS        PTSUNNY   90  75  61 VRB6      30.00S HX 100
NASHVILLE      PTSUNNY   91  72  53 W7        30.03F HX  98

......ARKANSAS.......

CITY           SKY/WX    TMP DP  RH WIND       PRES   REMARKS
FAYETTEVILLE   SUNNY     92  75  57 VRB6      30.02F HX 103
FT SMITH       SUNNY     94  71  47 W5        29.97F HX 101
LITTLE ROCK    CLOUDY    93  74  53 W6        29.98F HX 103

......OKLAHOMA.......

CITY           SKY/WX    TMP DP  RH WIND       PRES   REMARKS
TULSA          MOSUNNY   97  71  42 SW9       29.93F HX 104
PONCA CITY     SUNNY    100  68  35 S10G17    29.93F HX 105
MCALESTER      SUNNY     94  74  52 VRB5      29.99F HX 104
OKLAHOMA CITY  MOSUNNY   97  68  38 S12       29.98F HX 102

......IOWA............

CITY           SKY/WX    TMP DP  RH WIND       PRES   REMARKS
DES MOINES     MOSUNNY   87  68  52 N9        29.93R HX  90
QUAD CITIES    CLOUDY    92  77  61 SW12      29.86S HX 105

......ILLINOIS........

CITY           SKY/WX    TMP DP  RH WIND       PRES   REMARKS
QUINCY         SUNNY     94  77  57 SW10      29.91S HX 108
CHICAGO        PTSUNNY   89  78  70 S16G23    29.88S HX 103




USA.gov is the U.S. government's official web portal to all federal, state and local government web resources and services.